SCP
0 0 0 0 0 0 0 0 0 0 0 0 0 0 0 0 0 0 0 0 0 0 0 0 0 0 0 0 0 0 0 0 0 0 0 0 0 0 0 0 0 0 0
0 0 0 0 0 0 0 0 0 0 0 0 0 0 0 0 0 0 0 0 0 0 0 0 0 0 0 0 0 0 0 0 0 0 -0 0 0 0 0 0 0 0 0
0 0 0 0 0 0 0 0 0 0 0 0 0 0 0 0 0 0 0 0 0 0 0 0 0 0 0 0 0 0 0 0 0 0 -0 -0 0 0 0 0 0 0 0
0 0 0 0 0 0 0 0 0 0 0 0 0 0 0 0 0 0 0 0 0 0 0 0 0 0 0 0 0 0 0 0 0 0 0 0 -0 0 0 0 0 0 0
0 0 0 0 0 0 0 0 0 0 0 0 0 0 0 0 0 0 0 0 0 0 0 0 0 0 0 0 0 0 0 0 0 0 0 0 0 0 0 0 0 0 0
0 0 0 0 0 0 0 0 0 0 0 0 0 0 0 0 0 0 0 0 0 0 0 0 0 0 0 0 0 0 0 0 0 0 0 0 0 0 -0 0 0 0 0
0 0 0 0 0 0 0 0 0 0 0 0 0 0 0 0 0 0 0 0 0 0 0 0 0 0 0 0 0 0 0 0 0 0 0 0 0 0 0 0 0 0 0
0 0 0 0 0 0 0 0 0 0 0 0 0 0 0 0 0 0 0 0 0 0 0 0 0 0 0 0 0 0 0 0 0 0 0 0 0 -0 -0 0 0 0 0
0 0 0 0 0 0 0 0 0 0 0 0 0 0 0 0 0 0 0 0 0 0 0 0 0 0 0 0 0 0 0 0 0 0 0 0 -0 -0 0 0 0 0 0
0 0 0 0 0 0 0 0 0 0 0 0 0 0 0 0 0 0 0 0 0 0 0 0 0 0 0 0 0 0 0 0 0 0 0 0 -0 -0 -0 0 0 0 0
0 0 0 0 0 0 0 0 0 0 0 0 0 0 0 0 0 0 0 0 0 0 0 0 0 0 0 0 0 0 0 0 0 0 0 0 0 -0 0 0 0 0 0
0 0 0 0 0 0 0 0 0 0 0 0 0 0 0 0 0 0 0 0 0 0 0 0 0 0 0 0 0 0 0 0 0 0 0 0 0 -0 -0 0 0 0 0
0 0 0 0 0 0 0 0 0 0 0 0 0 0 0 0 0 0 0 0 0 0 0 0 0 0 0 0 0 0 0 0 0 0 0 0 0 -0 -0 -0 0 0 0
0 0 0 0 0 0 0 0 0 0 0 0 0 0 0 0 0 0 0 0 0 0 0 0 0 0 0 0 0 0 0 0 0 0 0 0 0 -0 -0 -0 -0 0 0
0 0 0 0 0 0 0 0 0 0 0 0 0 0 0 0 0 0 0 0 0 0 0 0 0 0 0 0 0 0 0 0 0 0 0 0 -0 -0 -0 0 -0 0 0
0 0 0 0 0 0 0 0 0 0 0 0 0 0 0 0 0 0 0 0 0 0 0 0 0 0 0 0 0 0 0 0 0 0 0 0 0 0 -0 -0 -0 -0 0
0 0 0 0 0 0 0 0 0 0 0 0 0 0 0 0 0 0 0 0 0 0 0 0 0 0 0 0 0 0 0 0 0 0 0 0 0 0 0 -0 -0 -0 -0
0 0 0 0 0 0 0 0 0 0 0 0 0 0 0 0 0 0 0 0 0 0 0 0 0 0 0 0 0 0 0 0 0 0 0 0 0 0 0 0 -0 -0 -0
0 0 0 0 0 0 0 0 0 0 0 0 0 0 0 0 0 0 0 0 0 0 0 0 0 0 0 0 0 0 0 0 0 0 0 0 0 0 0 0 0 -0 -0
0 0 0 0 0 0 0 0 0 0 0 0 0 0 0 0 0 0 0 0 0 0 0 0 0 0 0 0 0 0 0 0 0 0 0 0 0 0 -0 -0 -0 -0 0
0 0 0 0 0 0 0 0 0 0 0 0 0 0 0 0 0 0 0 0 0 0 0 0 0 0 0 0 0 0 0 0 0 0 0 0 0 -0 -0 0 0 0 0
0 0 0 0 0 0 0 0 0 0 0 0 0 0 0 0 0 0 0 0 0 0 0 0 0 0 0 0 0 0 0 0 0 0 0 0 0 0 0 -0 0 0 0
0 0 0 0 0 0 0 0 0 0 0 0 0 0 0 0 0 0 0 0 0 0 0 0 0 0 0 0 0 0 0 0 0 0 0 0 0 0 0 0 0 0 0
0 0 0 0 0 0 0 0 0 0 0 0 0 0 0 0 0 0 0 0 0 0 0 0 0 0 0 0 0 0 0 0 0 0 0 0 0 -0 -0 -0 -0 0 0
0 0 0 0 0 0 0 0 0 0 0 0 0 0 0 0 0 0 0 0 0 0 0 0 0 0 0 0 0 0 0 0 0 0 0 0 0 0 0 -0 -0 0 0
0 0 0 0 0 0 0 0 0 0 0 0 0 0 0 0 0 0 0 0 0 0 0 0 0 0 0 0 -0 0 0 0 0 0 0 0 0 0 0 0 0 -0 0
Wind_Speed_500mb
60 60 53 43 31 21 13 9 9 15 14 14 10 14 14 11 20 32 39 40 40 51 45 37 39 38 34 31 36 37 41 44 48 60 62 48 25 2 11 14 24 42 45
67 60 51 38 23 15 7 7 11 17 9 11 16 15 5 4 18 28 34 39 45 43 45 43 43 42 40 42 41 36 44 46 44 53 51 49 35 18 7 8 26 19 24
78 65 51 35 21 13 5 7 14 15 8 7 15 19 6 10 19 23 30 46 41 38 43 44 44 41 43 46 42 39 41 44 42 37 37 21 21 61 24 20 34 38 14
74 64 52 40 29 18 7 6 15 14 12 12 8 6 2 15 25 28 33 34 38 39 42 45 42 42 43 43 44 35 35 40 42 41 37 33 32 18 41 50 46 28 29
76 63 53 37 28 17 7 6 16 13 14 15 18 7 12 17 16 22 23 26 31 30 39 40 43 43 42 44 42 36 36 35 38 34 36 34 33 33 37 46 56 31 28
68 56 44 35 26 26 10 4 12 12 7 12 19 14 12 18 24 22 23 26 32 30 34 42 39 39 41 44 44 36 35 36 33 31 31 30 40 29 36 42 47 40 24
73 66 50 41 40 35 15 4 8 11 3 8 13 11 13 18 18 26 28 31 34 31 39 39 41 40 40 47 43 36 36 35 29 29 32 30 30 26 30 32 41 41 24
68 61 45 45 49 33 16 3 1 10 7 10 8 13 16 14 18 24 27 29 32 34 36 39 43 37 41 49 47 35 33 36 30 27 29 31 29 28 28 30 31 32 15
60 52 51 55 53 36 19 14 17 11 8 11 9 12 13 16 18 25 25 26 31 36 38 38 43 41 45 45 48 36 35 34 33 28 25 32 28 26 27 26 20 18 11
56 57 60 55 40 28 19 17 11 14 12 7 1 8 12 12 16 18 22 26 28 27 32 36 37 43 53 45 43 39 32 31 33 30 26 29 34 29 29 25 13 13 15
58 67 55 41 28 16 17 21 16 16 15 5 3 4 8 10 13 20 25 26 28 29 32 34 35 38 49 51 42 35 35 33 33 31 27 32 34 35 30 26 18 16 11
71 59 46 33 21 21 23 24 20 17 13 10 2 7 10 9 11 19 25 23 23 27 30 33 34 40 47 57 35 37 34 31 31 33 26 29 34 36 34 23 25 16 16
63 56 47 43 35 35 32 24 22 21 19 10 5 6 6 11 11 19 21 23 24 25 30 30 36 40 54 49 36 30 30 32 34 30 28 28 32 39 37 34 24 14 11
65 58 50 42 46 34 23 19 28 23 18 10 4 7 10 12 13 17 15 20 24 31 28 26 29 38 55 46 40 35 31 30 30 29 25 24 31 34 35 38 32 18 6
62 62 58 53 43 34 32 30 29 25 21 12 8 7 10 10 12 10 14 18 24 29 26 24 27 31 50 56 46 34 33 29 30 30 23 25 27 26 31 33 38 28 6
61 63 58 50 43 34 34 32 31 31 22 8 14 12 8 9 11 15 15 17 25 23 27 24 29 30 40 46 49 35 33 35 28 34 24 21 21 23 24 32 29 27 20
63 58 51 45 37 30 32 36 35 27 19 8 11 8 4 5 12 14 14 23 26 24 25 23 22 28 31 43 52 32 30 34 29 36 30 23 18 16 22 24 25 26 20
63 56 50 43 38 37 34 35 30 28 19 9 7 7 5 7 7 7 13 24 27 24 24 22 19 22 33 39 43 37 30 35 28 33 34 30 20 14 18 16 21 21 25
65 59 51 46 42 36 34 29 30 25 20 18 7 10 11 9 10 13 14 24 29 27 23 17 18 24 31 38 45 28 23 28 31 29 34 34 21 15 13 14 16 15 14
64 59 51 44 37 30 23 25 26 22 20 20 13 11 12 12 14 13 19 20 27 28 23 18 16 21 29 38 47 36 29 27 25 29 29 30 25 16 15 13 12 6 11
62 53 48 41 33 27 25 22 18 19 17 19 16 14 15 18 16 15 18 21 20 24 23 17 14 22 32 38 37 30 32 26 24 23 26 25 27 26 20 17 11 10 9
57 49 45 36 30 20 25 24 21 19 17 20 18 19 16 14 11 13 12 17 17 22 24 20 23 34 26 25 36 26 17 22 21 23 22 20 25 30 29 13 11 7 5
50 40 36 36 24 25 25 24 17 19 13 15 17 18 16 11 12 10 12 18 17 18 20 16 17 21 25 32 34 23 21 19 22 17 18 17 18 21 33 30 9 8 7
42 40 41 35 28 29 22 12 11 8 19 11 11 10 8 4 4 5 8 14 13 17 22 22 22 26 31 33 29 28 25 18 17 14 19 21 22 21 27 33 20 8 9
44 42 42 35 26 24 19 11 6 6 17 10 5 1 3 8 7 9 9 8 11 21 18 18 21 28 33 28 32 29 27 26 20 22 20 22 22 22 22 26 28 18 11
41 43 41 36 26 21 17 14 6 4 6 9 7 3 6 6 10 8 10 10 15 19 20 22 20 23 29 20 29 24 21 20 18 22 25 27 27 27 24 25 24 28 19
Wind_Direction_500mb
164 164 171 184 192 201 227 303 355 6 345 8 55 83 47 344 331 344 355 358 25 32 30 30 28 21 21 9 352 350 352 352 350 351 352 354 347 312 316 288 303 265 256
163 165 174 184 200 203 234 347 12 16 29 21 79 83 120 1 341 338 0 28 33 32 33 27 25 21 13 7 2 357 348 351 353 357 3 355 8 302 154 9 19 337 270
166 167 173 181 185 185 275 16 13 23 42 17 119 137 196 277 317 17 26 31 29 19 22 11 8 10 3 358 352 357 1 351 358 359 6 347 330 339 331 352 344 2 270
170 170 176 174 176 187 246 39 21 3 47 31 65 138 333 5 24 22 19 22 16 15 13 6 8 4 6 4 359 353 358 356 353 353 356 347 354 335 329 334 354 9 15
174 167 175 176 180 192 198 27 7 19 31 40 26 36 65 36 35 33 20 18 20 15 7 2 1 0 2 7 359 2 358 356 354 352 346 348 340 354 342 338 351 4 9
164 169 173 167 168 179 198 315 3 44 49 19 8 49 68 58 37 28 20 23 16 5 9 1 1 8 1 357 356 357 360 355 355 352 355 348 345 337 345 334 343 350 16
158 162 163 163 169 181 182 222 352 69 138 348 356 60 75 73 40 30 24 17 16 16 12 5 7 3 7 4 357 354 0 0 357 353 356 354 348 340 332 327 335 345 22
158 169 168 156 169 162 155 222 145 130 198 326 358 64 69 69 46 32 27 24 20 15 9 3 8 5 3 360 7 358 2 1 358 357 358 355 350 347 343 325 328 336 342
171 176 165 165 172 157 159 172 151 171 232 336 11 59 68 55 38 38 26 18 13 11 7 11 9 5 2 358 360 354 357 359 1 353 353 353 353 356 340 324 314 312 316
168 171 174 165 167 174 174 189 208 189 225 328 325 41 62 65 39 27 20 20 10 9 11 7 12 6 3 355 357 6 7 1 5 0 357 354 0 353 347 347 304 307 309
170 155 153 158 163 175 182 175 190 207 220 275 326 109 83 70 46 26 8 13 15 19 12 10 4 6 7 2 354 1 356 359 8 3 2 1 360 357 347 340 330 282 283
154 157 157 155 161 175 159 164 172 196 231 273 249 92 51 101 70 36 10 26 19 11 7 2 359 354 360 359 5 1 2 6 5 4 2 1 5 6 4 357 340 311 242
155 158 160 160 159 167 176 184 188 211 227 264 142 74 74 79 58 42 39 27 14 360 1 359 9 4 2 2 6 10 11 19 11 6 359 0 359 11 12 9 360 340 224
158 162 164 170 177 184 193 174 182 219 227 258 139 139 93 81 55 41 24 20 5 355 355 350 4 9 12 13 14 14 9 13 14 4 4 5 4 12 13 19 21 23 157
160 164 165 168 176 178 183 188 199 208 220 249 171 133 101 71 52 5 7 359 350 352 0 347 356 4 18 17 7 18 11 10 12 11 9 4 1 17 18 26 32 36 71
162 163 167 172 179 184 189 197 197 213 226 253 173 181 120 66 24 3 357 342 339 350 358 352 3 5 13 15 8 5 9 12 10 10 360 10 6 11 20 29 35 43 56
163 168 175 182 191 198 199 201 202 209 214 237 196 183 124 11 19 11 358 336 334 350 351 352 351 6 7 17 10 4 11 15 16 11 9 355 11 15 17 31 35 40 51
168 171 174 176 180 183 189 194 201 209 220 211 215 210 234 303 323 336 317 336 350 346 349 345 349 5 2 10 8 3 11 4 14 14 18 20 23 25 26 26 46 52 53
175 173 175 177 181 191 200 206 198 214 220 220 248 216 235 297 307 311 322 349 352 355 356 347 356 3 12 10 9 11 360 5 6 15 24 18 17 24 20 10 63 37 38
169 168 172 176 186 191 200 192 196 195 213 233 222 230 232 264 285 304 331 339 355 3 356 1 1 9 11 14 11 8 8 11 24 23 19 18 19 8 359 358 6 21 33
162 165 169 175 183 186 188 185 183 209 222 230 239 244 258 267 279 305 333 350 359 7 14 12 13 358 1 4 2 7 358 8 14 14 21 20 28 29 8 1 343 4 11
154 163 166 173 178 189 171 169 192 192 217 242 250 264 278 282 309 315 339 349 344 15 9 3 1 354 352 354 0 349 3 355 356 1 5 6 16 25 20 11 19 7 22
154 165 172 170 174 155 167 183 212 205 224 243 264 284 283 277 284 308 336 353 8 12 7 8 359 2 341 337 347 354 352 339 330 357 1 13 5 20 19 16 351 342 331
157 169 172 171 161 167 175 202 215 242 206 242 261 278 279 306 352 44 24 16 10 353 345 345 344 346 337 340 354 1 359 8 19 16 21 21 22 18 14 11 10 5 346
166 176 177 178 176 185 187 187 275 319 198 232 220 36 94 132 83 33 6 352 319 349 358 344 351 7 16 12 10 14 24 19 31 32 27 16 12 7 11 7 5 10 10
171 180 186 184 175 170 165 204 253 320 169 176 154 236 267 288 311 305 317 351 328 340 338 337 343 3 17 21 29 26 19 22 11 19 13 5 4 7 355 354 1 360 8
Wind_Speed_850mb
60 60 53 43 31 21 13 9 9 15 14 14 10 14 14 11 20 32 39 40 40 51 45 37 39 38 34 31 36 37 41 44 48 60 62 48 25 2 11 14 24 42 45
67 60 51 38 23 15 7 7 11 17 9 11 16 15 5 4 18 28 34 39 45 43 45 43 43 42 40 42 41 36 44 46 44 53 51 49 35 18 7 8 26 19 24
78 65 51 35 21 13 5 7 14 15 8 7 15 19 6 10 19 23 30 46 41 38 43 44 44 41 43 46 42 39 41 44 42 37 37 21 21 61 24 20 34 38 14
74 64 52 40 29 18 7 6 15 14 12 12 8 6 2 15 25 28 33 34 38 39 42 45 42 42 43 43 44 35 35 40 42 41 37 33 32 18 41 50 46 28 29
76 63 53 37 28 17 7 6 16 13 14 15 18 7 12 17 16 22 23 26 31 30 39 40 43 43 42 44 42 36 36 35 38 34 36 34 33 33 37 46 56 31 28
68 56 44 35 26 26 10 4 12 12 7 12 19 14 12 18 24 22 23 26 32 30 34 42 39 39 41 44 44 36 35 36 33 31 31 30 40 29 36 42 47 40 24
73 66 50 41 40 35 15 4 8 11 3 8 13 11 13 18 18 26 28 31 34 31 39 39 41 40 40 47 43 36 36 35 29 29 32 30 30 26 30 32 41 41 24
68 61 45 45 49 33 16 3 1 10 7 10 8 13 16 14 18 24 27 29 32 34 36 39 43 37 41 49 47 35 33 36 30 27 29 31 29 28 28 30 31 32 15
60 52 51 55 53 36 19 14 17 11 8 11 9 12 13 16 18 25 25 26 31 36 38 38 43 41 45 45 48 36 35 34 33 28 25 32 28 26 27 26 20 18 11
56 57 60 55 40 28 19 17 11 14 12 7 1 8 12 12 16 18 22 26 28 27 32 36 37 43 53 45 43 39 32 31 33 30 26 29 34 29 29 25 13 13 15
58 67 55 41 28 16 17 21 16 16 15 5 3 4 8 10 13 20 25 26 28 29 32 34 35 38 49 51 42 35 35 33 33 31 27 32 34 35 30 26 18 16 11
71 59 46 33 21 21 23 24 20 17 13 10 2 7 10 9 11 19 25 23 23 27 30 33 34 40 47 57 35 37 34 31 31 33 26 29 34 36 34 23 25 16 16
63 56 47 43 35 35 32 24 22 21 19 10 5 6 6 11 11 19 21 23 24 25 30 30 36 40 54 49 36 30 30 32 34 30 28 28 32 39 37 34 24 14 11
65 58 50 42 46 34 23 19 28 23 18 10 4 7 10 12 13 17 15 20 24 31 28 26 29 38 55 46 40 35 31 30 30 29 25 24 31 34 35 38 32 18 6
62 62 58 53 43 34 32 30 29 25 21 12 8 7 10 10 12 10 14 18 24 29 26 24 27 31 50 56 46 34 33 29 30 30 23 25 27 26 31 33 38 28 6
61 63 58 50 43 34 34 32 31 31 22 8 14 12 8 9 11 15 15 17 25 23 27 24 29 30 40 46 49 35 33 35 28 34 24 21 21 23 24 32 29 27 20
63 58 51 45 37 30 32 36 35 27 19 8 11 8 4 5 12 14 14 23 26 24 25 23 22 28 31 43 52 32 30 34 29 36 30 23 18 16 22 24 25 26 20
63 56 50 43 38 37 34 35 30 28 19 9 7 7 5 7 7 7 13 24 27 24 24 22 19 22 33 39 43 37 30 35 28 33 34 30 20 14 18 16 21 21 25
65 59 51 46 42 36 34 29 30 25 20 18 7 10 11 9 10 13 14 24 29 27 23 17 18 24 31 38 45 28 23 28 31 29 34 34 21 15 13 14 16 15 14
64 59 51 44 37 30 23 25 26 22 20 20 13 11 12 12 14 13 19 20 27 28 23 18 16 21 29 38 47 36 29 27 25 29 29 30 25 16 15 13 12 6 11
62 53 48 41 33 27 25 22 18 19 17 19 16 14 15 18 16 15 18 21 20 24 23 17 14 22 32 38 37 30 32 26 24 23 26 25 27 26 20 17 11 10 9
57 49 45 36 30 20 25 24 21 19 17 20 18 19 16 14 11 13 12 17 17 22 24 20 23 34 26 25 36 26 17 22 21 23 22 20 25 30 29 13 11 7 5
50 40 36 36 24 25 25 24 17 19 13 15 17 18 16 11 12 10 12 18 17 18 20 16 17 21 25 32 34 23 21 19 22 17 18 17 18 21 33 30 9 8 7
42 40 41 35 28 29 22 12 11 8 19 11 11 10 8 4 4 5 8 14 13 17 22 22 22 26 31 33 29 28 25 18 17 14 19 21 22 21 27 33 20 8 9
44 42 42 35 26 24 19 11 6 6 17 10 5 1 3 8 7 9 9 8 11 21 18 18 21 28 33 28 32 29 27 26 20 22 20 22 22 22 22 26 28 18 11
41 43 41 36 26 21 17 14 6 4 6 9 7 3 6 6 10 8 10 10 15 19 20 22 20 23 29 20 29 24 21 20 18 22 25 27 27 27 24 25 24 28 19
Wind_Direction_850mb
164 164 171 184 192 201 227 303 355 6 345 8 55 83 47 344 331 344 355 358 25 32 30 30 28 21 21 9 352 350 352 352 350 351 352 354 347 312 316 288 303 265 256
163 165 174 184 200 203 234 347 12 16 29 21 79 83 120 1 341 338 0 28 33 32 33 27 25 21 13 7 2 357 348 351 353 357 3 355 8 302 154 9 19 337 270
166 167 173 181 185 185 275 16 13 23 42 17 119 137 196 277 317 17 26 31 29 19 22 11 8 10 3 358 352 357 1 351 358 359 6 347 330 339 331 352 344 2 270
170 170 176 174 176 187 246 39 21 3 47 31 65 138 333 5 24 22 19 22 16 15 13 6 8 4 6 4 359 353 358 356 353 353 356 347 354 335 329 334 354 9 15
174 167 175 176 180 192 198 27 7 19 31 40 26 36 65 36 35 33 20 18 20 15 7 2 1 0 2 7 359 2 358 356 354 352 346 348 340 354 342 338 351 4 9
164 169 173 167 168 179 198 315 3 44 49 19 8 49 68 58 37 28 20 23 16 5 9 1 1 8 1 357 356 357 360 355 355 352 355 348 345 337 345 334 343 350 16
158 162 163 163 169 181 182 222 352 69 138 348 356 60 75 73 40 30 24 17 16 16 12 5 7 3 7 4 357 354 0 0 357 353 356 354 348 340 332 327 335 345 22
158 169 168 156 169 162 155 222 145 130 198 326 358 64 69 69 46 32 27 24 20 15 9 3 8 5 3 360 7 358 2 1 358 357 358 355 350 347 343 325 328 336 342
171 176 165 165 172 157 159 172 151 171 232 336 11 59 68 55 38 38 26 18 13 11 7 11 9 5 2 358 360 354 357 359 1 353 353 353 353 356 340 324 314 312 316
168 171 174 165 167 174 174 189 208 189 225 328 325 41 62 65 39 27 20 20 10 9 11 7 12 6 3 355 357 6 7 1 5 0 357 354 0 353 347 347 304 307 309
170 155 153 158 163 175 182 175 190 207 220 275 326 109 83 70 46 26 8 13 15 19 12 10 4 6 7 2 354 1 356 359 8 3 2 1 360 357 347 340 330 282 283
154 157 157 155 161 175 159 164 172 196 231 273 249 92 51 101 70 36 10 26 19 11 7 2 359 354 360 359 5 1 2 6 5 4 2 1 5 6 4 357 340 311 242
155 158 160 160 159 167 176 184 188 211 227 264 142 74 74 79 58 42 39 27 14 360 1 359 9 4 2 2 6 10 11 19 11 6 359 0 359 11 12 9 360 340 224
158 162 164 170 177 184 193 174 182 219 227 258 139 139 93 81 55 41 24 20 5 355 355 350 4 9 12 13 14 14 9 13 14 4 4 5 4 12 13 19 21 23 157
160 164 165 168 176 178 183 188 199 208 220 249 171 133 101 71 52 5 7 359 350 352 0 347 356 4 18 17 7 18 11 10 12 11 9 4 1 17 18 26 32 36 71
162 163 167 172 179 184 189 197 197 213 226 253 173 181 120 66 24 3 357 342 339 350 358 352 3 5 13 15 8 5 9 12 10 10 360 10 6 11 20 29 35 43 56
163 168 175 182 191 198 199 201 202 209 214 237 196 183 124 11 19 11 358 336 334 350 351 352 351 6 7 17 10 4 11 15 16 11 9 355 11 15 17 31 35 40 51
168 171 174 176 180 183 189 194 201 209 220 211 215 210 234 303 323 336 317 336 350 346 349 345 349 5 2 10 8 3 11 4 14 14 18 20 23 25 26 26 46 52 53
175 173 175 177 181 191 200 206 198 214 220 220 248 216 235 297 307 311 322 349 352 355 356 347 356 3 12 10 9 11 360 5 6 15 24 18 17 24 20 10 63 37 38
169 168 172 176 186 191 200 192 196 195 213 233 222 230 232 264 285 304 331 339 355 3 356 1 1 9 11 14 11 8 8 11 24 23 19 18 19 8 359 358 6 21 33
162 165 169 175 183 186 188 185 183 209 222 230 239 244 258 267 279 305 333 350 359 7 14 12 13 358 1 4 2 7 358 8 14 14 21 20 28 29 8 1 343 4 11
154 163 166 173 178 189 171 169 192 192 217 242 250 264 278 282 309 315 339 349 344 15 9 3 1 354 352 354 0 349 3 355 356 1 5 6 16 25 20 11 19 7 22
154 165 172 170 174 155 167 183 212 205 224 243 264 284 283 277 284 308 336 353 8 12 7 8 359 2 341 337 347 354 352 339 330 357 1 13 5 20 19 16 351 342 331
157 169 172 171 161 167 175 202 215 242 206 242 261 278 279 306 352 44 24 16 10 353 345 345 344 346 337 340 354 1 359 8 19 16 21 21 22 18 14 11 10 5 346
166 176 177 178 176 185 187 187 275 319 198 232 220 36 94 132 83 33 6 352 319 349 358 344 351 7 16 12 10 14 24 19 31 32 27 16 12 7 11 7 5 10 10
171 180 186 184 175 170 165 204 253 320 169 176 154 236 267 288 311 305 317 351 328 340 338 337 343 3 17 21 29 26 19 22 11 19 13 5 4 7 355 354 1 360 8